Regional Weather Roundup
Issued by NWS Sioux Falls, SD

Home | Current Version | Previous Version | Text Only | Print | Product List | Glossary On
Versions: 1 2 3 4 5 6 7 8 9 10 11 12 13 14 15 16 17 18 19 20 21 22 23 24 25 26 27 28 29 30 31 32 33 34 35 36 37 38 39 40 41 42 43 44 45 46 47 48 49 50
000
ASUS43 KFSD 250202
RWRFSD

WEATHER ROUNDUP FOR SE SOUTH DAKOTA/SW MINNESOTA/NW IOWA
NATIONAL WEATHER SERVICE SIOUX FALLS SD
900 PM CDT SAT JUN 24 2017

NOTE: "FAIR" INDICATES FEW OR NO CLOUDS BELOW 12,000 FEET WITH NO
SIGNIFICANT WEATHER AND OR OBSTRUCTIONS TO VISIBILITY.


SDZ038>040-050-052>070-250300-
SOUTHEAST SOUTH DAKOTA

CITY           SKY/WX    TMP DP  RH WIND       PRES   REMARKS
BROOKINGS      CLOUDY    59  42  53 N15G21    30.17R
CHAMBERLAIN    CLEAR     67  39  36 N15       30.22R
HURON          CLEAR     60  43  53 N15G24    30.20R
MADISON        FAIR      57  39  51 N12G18    30.18R
MITCHELL       CLEAR     65  38  36 N10       30.19R
SIOUX FALLS    PTCLDY    61  42  49 N12       30.16R
WINNER         FAIR      68  31  25 N12       30.22R
YANKTON        CLEAR     65  42  43 N9        30.17R
$$

MNZ071-072-080-081-089-090-097-098-250300-
SOUTHWEST MINNESOTA

CITY           SKY/WX    TMP DP  RH WIND       PRES   REMARKS
FAIRMONT       CLEAR     61  41  47 NW10      30.11R
JACKSON        CLEAR     59  37  44 NW12      30.13R
MARSHALL       CLOUDY    61  41  47 NW17      30.13R
MONTEVIDEO     CLEAR     59  43  55 N10G20    30.13R
PIPESTONE      CLEAR     61  39  44 N12G21    30.16R
REDWOOD FALLS  PTCLDY    61  41  47 NW10      30.10R
TRACY          CLOUDY    62  43  49 NW15      30.14R
WINDOM         CLEAR     61  39  44 NW10      30.13R
WORTHINGTON    CLEAR     59  41  51 NW12      30.14R
$$

IAZ001>003-012>014-020>022-031-032-NEZ013-014-SDZ071-250300-
NORTHWEST IOWA

CITY           SKY/WX    TMP DP  RH WIND       PRES   REMARKS
CHEROKEE       CLEAR     64  42  44 N9        30.13R
DENISON        CLEAR     66  39  37 NW8       30.14R
ESTHERVILLE    CLEAR     60  40  47 NW10      30.11S
LE MARS        CLEAR     66  41  39 N13       30.15R
ORANGE CITY    CLEAR     64  43  45 N9        30.15R
SHELDON        CLEAR     63  41  45 NW13      30.13R
SIOUX CITY     CLEAR     68  37  32 N13       30.14R
SPENCER        CLEAR     61  41  47 NW9       30.12S
STORM LAKE     CLEAR     63  41  45 N9        30.13R
$$

ABBREVIATIONS USED IN REMARKS
   TC - TEMPERATURE IN CELSIUS
  WCI - WIND CHILL INDEX
   HX - HEAT INDEX
  VSB - VISIBILITY





USA.gov is the U.S. government's official web portal to all federal, state and local government web resources and services.